Wind_Speed
21 19 18 17 15 14 13 12 11 11 11 10 9 9 8 8 7 7 6 6 5 4 3 3 2 1 0 1 1 2 2 3 4 5 6 7 8 8 9 10 11 11 12
23 21 19 18 17 16 15 14 13 12 11 11 10 10 10 9 8 8 7 7 6 5 4 4 3 2 1 1 1 1 1 2 3 4 5 6 7 7 8 9 10 11 12
24 23 20 19 17 17 16 15 14 13 12 12 11 11 11 10 9 9 8 8 7 6 6 5 4 3 2 2 1 1 0 1 2 3 4 5 6 7 8 9 10 11 12
26 24 22 20 18 17 16 16 15 14 14 13 12 12 11 11 10 9 9 9 8 7 7 6 5 4 3 3 2 2 1 0 1 2 4 5 6 7 8 9 10 12 13
27 25 23 21 19 18 17 16 16 15 15 14 13 13 12 12 11 10 10 9 9 8 7 6 6 5 4 4 3 3 2 2 2 3 4 5 6 7 9 10 11 12 13
28 26 24 22 21 19 18 17 17 16 15 15 14 13 13 13 12 11 11 10 9 9 8 7 6 6 5 5 4 4 3 3 3 4 5 6 7 8 9 11 12 13 14
29 27 25 24 22 21 19 18 18 17 16 16 15 14 14 13 13 12 12 11 10 9 9 8 7 7 6 6 5 5 5 4 5 5 6 7 8 9 10 11 13 14 15
31 29 27 25 23 22 21 20 19 18 17 17 16 15 15 14 14 13 12 11 11 10 9 8 8 8 7 7 7 6 6 6 6 7 7 8 9 10 11 13 14 15 16
33 30 28 26 25 23 22 21 20 19 18 18 17 16 16 16 15 14 13 13 12 11 10 9 9 8 8 8 8 7 7 8 8 8 9 9 10 11 12 14 15 16 17
34 31 29 27 26 25 23 22 21 20 19 18 18 17 17 16 16 15 15 14 13 12 11 11 10 9 9 9 9 9 9 9 9 10 10 11 11 13 14 15 16 17 18
35 32 30 29 27 26 25 23 22 21 20 19 19 18 18 17 17 16 16 15 14 13 13 12 11 10 10 10 10 10 10 11 11 11 12 12 13 14 15 16 17 19 20
36 33 31 30 28 27 26 25 24 22 22 21 20 20 19 18 18 17 17 16 15 15 14 13 13 12 12 12 12 12 13 13 13 14 14 15 16 17 17 18 19 20 21
37 35 33 32 30 28 27 26 25 24 23 22 22 21 20 20 19 19 18 18 17 16 15 15 15 14 14 14 14 14 15 15 16 16 17 17 18 19 20 20 21 22 23
38 36 35 33 31 30 29 28 27 26 25 24 24 23 22 21 21 20 20 19 19 18 17 17 17 17 16 16 17 17 17 18 18 19 19 20 21 21 22 23 24 25 26
40 38 37 35 33 31 30 30 29 28 27 26 25 25 24 23 22 22 22 21 21 20 20 19 19 19 19 19 19 19 20 21 21 22 22 23 24 24 25 25 26 27 28
43 40 38 36 34 33 32 31 30 29 28 27 27 26 25 25 24 24 23 23 23 23 22 22 21 21 21 21 21 22 22 23 24 24 25 26 26 27 27 28 29 30 30
44 42 40 37 36 35 34 34 32 30 29 29 29 28 27 26 26 26 26 26 25 25 25 24 24 24 23 23 24 24 25 25 26 27 27 28 28 29 30 31 32 32 32
46 44 42 40 39 38 36 36 34 33 31 31 31 30 29 28 28 28 28 28 27 27 27 27 26 26 26 26 26 26 27 28 28 29 30 30 31 32 33 34 34 35 35
47 45 45 42 41 40 39 38 37 35 34 33 32 31 31 30 29 29 29 29 29 29 29 29 29 28 28 28 29 29 30 30 31 32 32 33 34 34 35 36 36 37 37
47 45 46 45 42 42 41 40 38 37 36 34 34 33 33 32 31 31 31 31 31 31 31 31 31 31 31 31 31 31 32 33 34 34 35 36 36 37 38 38 38 38 39
47 46 44 45 44 43 42 41 40 39 38 37 36 35 35 34 33 33 34 34 33 33 32 32 33 34 34 34 35 35 36 37 37 38 38 39 39 40 39 40 40 40 41
46 47 46 45 46 47 46 44 42 41 40 38 38 37 37 36 36 36 36 35 35 35 35 36 36 37 37 37 37 38 38 39 39 40 40 41 42 42 42 42 42 42 43
49 48 47 46 46 46 46 45 44 43 42 41 40 40 39 37 37 38 38 38 38 38 37 37 38 39 40 41 41 42 42 42 42 42 43 43 44 45 45 45 45 45 45
48 49 49 48 48 47 47 47 46 45 44 43 42 42 40 40 39 39 39 39 39 39 39 40 40 40 41 42 43 44 45 46 46 46 45 45 46 46 47 47 47 47 47
49 49 50 50 49 48 48 47 46 45 44 43 43 42 41 41 41 41 41 41 41 41 41 42 42 43 44 44 45 47 48 48 48 48 47 47 47 47 48 49 49 48 48
49 50 50 51 50 49 49 48 47 46 45 44 44 44 43 43 43 43 44 43 43 43 43 44 45 46 47 47 48 48 49 48 48 49 49 48 48 48 49 49 48 49 49
Wind_Direction
217 218 219 219 219 217 217 218 221 222 225 225 228 227 228 226 227 228 229 230 234 237 239 240 242 244 249 89 77 75 72 67 61 56 53 47 41 36 32 29 24 20 16
216 217 218 219 219 218 218 218 220 222 223 224 226 226 224 226 228 229 230 231 234 238 239 235 236 240 235 190 155 117 85 69 61 51 45 40 34 27 24 20 15 12 8
216 217 217 217 217 217 219 219 219 219 221 223 224 225 226 227 228 230 230 231 234 239 238 234 239 238 233 219 211 199 99 59 48 35 27 26 21 16 13 9 6 3 1
217 218 217 215 215 216 218 219 218 219 222 223 225 225 226 228 230 232 231 231 234 237 238 238 240 239 233 229 233 238 253 319 358 0 2 5 3 1 360 359 358 356 354
216 216 216 215 215 216 217 219 219 219 221 223 225 226 227 229 231 232 231 231 234 237 237 237 238 238 236 239 244 252 266 291 318 334 342 347 349 350 351 350 350 349 348
215 215 215 215 215 216 218 217 218 220 221 223 225 227 228 229 231 231 230 232 234 237 238 237 237 238 240 244 251 261 272 288 304 317 327 334 336 339 341 343 343 343 343
215 215 215 215 215 216 217 217 219 220 221 223 226 227 229 230 232 230 230 232 234 236 237 236 238 239 242 247 255 262 270 281 295 307 316 321 326 330 333 335 336 337 337
215 215 216 216 217 217 217 218 220 221 221 223 226 227 229 230 230 230 231 233 235 236 236 238 241 242 245 250 256 264 272 281 290 299 307 314 320 325 328 330 331 331 333
216 215 216 217 217 217 218 219 221 221 221 223 226 228 229 229 231 232 233 234 235 237 239 240 243 246 249 255 261 268 276 284 290 296 303 309 315 319 322 324 326 327 328
214 215 216 217 218 219 219 220 222 222 222 224 227 229 230 230 231 233 234 235 236 239 241 243 245 249 254 260 265 271 277 284 291 296 301 306 311 314 316 319 321 323 324
215 216 217 217 219 220 221 222 224 224 224 225 227 228 230 231 232 234 236 237 239 241 244 246 248 252 257 263 269 273 279 284 290 295 299 303 307 310 312 314 317 320 321
216 216 218 219 220 221 222 223 225 226 227 227 228 230 231 232 234 236 239 240 242 244 247 250 252 256 261 266 272 276 281 285 290 294 298 301 304 306 308 311 314 316 317
217 218 220 221 222 223 224 225 227 228 230 230 231 232 233 235 237 239 242 243 245 246 249 252 255 259 264 269 273 278 283 286 290 293 297 299 302 304 306 309 311 312 313
218 219 220 222 223 224 226 227 229 230 232 233 234 236 237 238 240 243 245 246 248 249 252 255 259 263 266 271 275 280 284 287 289 292 295 298 300 302 304 306 308 310 311
220 221 222 223 224 226 228 230 231 232 234 235 237 238 240 242 244 246 248 250 251 253 255 258 262 265 269 273 277 280 284 288 290 293 295 297 299 300 302 304 306 308 309
221 222 222 223 226 228 230 232 232 233 235 237 239 241 243 244 247 249 250 252 254 256 259 261 264 267 271 275 278 282 285 288 290 292 294 296 297 298 300 302 304 306 306
222 223 223 226 227 229 231 233 234 235 237 239 241 243 245 246 248 251 253 255 257 258 260 263 265 268 272 275 279 282 286 288 290 292 293 295 296 298 299 301 303 304 304
222 223 224 227 228 230 232 234 235 237 238 240 242 245 246 247 250 252 255 257 258 260 262 264 266 269 273 276 279 283 286 288 290 291 292 294 296 297 299 300 301 302 302
222 223 225 226 227 229 231 233 235 237 238 240 243 246 247 249 251 253 256 258 260 262 263 265 268 270 274 277 280 283 285 287 289 290 291 293 295 296 298 299 299 300 300
224 226 226 226 229 231 232 233 236 237 239 241 243 245 248 250 253 255 257 260 261 263 265 266 270 273 275 278 281 284 286 288 290 290 291 292 294 295 296 297 298 298 299
226 227 227 228 230 231 233 236 238 238 239 242 244 247 249 252 254 257 259 261 262 264 266 268 271 274 276 278 280 283 286 289 289 289 290 291 293 294 295 296 296 297 298
226 228 229 231 233 235 236 237 240 241 241 244 247 249 252 255 257 258 260 262 264 266 268 270 272 275 277 279 281 283 284 286 287 289 290 291 291 292 293 294 295 296 297
228 229 231 233 234 236 238 239 242 244 246 247 250 251 253 255 257 260 262 263 265 267 270 272 274 275 277 279 281 284 285 286 286 288 289 290 291 292 293 293 294 294 295
231 233 233 235 237 238 240 241 243 245 248 249 250 252 254 257 259 261 263 264 265 267 269 271 273 276 278 280 282 283 285 286 286 287 287 288 289 290 291 292 292 292 293
232 234 235 237 237 239 241 241 244 246 248 250 252 253 256 258 260 261 263 265 265 267 270 272 274 276 278 280 282 284 285 286 287 287 287 287 288 289 289 290 290 291 291
233 234 235 237 239 240 242 244 245 246 247 250 252 254 257 259 262 263 265 266 267 269 271 273 274 276 278 280 282 283 284 285 286 286 287 287 287 288 288 289 289 289 290
Height
5873 5875 5877 5879 5881 5883 5884 5886 5887 5889 5890 5892 5893 5894 5894 5895 5896 5896 5896 5897 5896 5896 5896 5896 5896 5895 5895 5894 5894 5893 5893 5892 5891 5890 5889 5888 5887 5886 5885 5884 5882 5881 5880
5870 5872 5875 5877 5879 5881 5883 5884 5886 5887 5889 5890 5892 5893 5893 5894 5895 5895 5895 5896 5896 5896 5896 5895 5895 5895 5895 5894 5893 5893 5892 5892 5891 5890 5889 5888 5887 5886 5885 5883 5882 5881 5879
5867 5870 5872 5875 5877 5879 5881 5882 5884 5886 5887 5889 5890 5891 5892 5893 5894 5894 5894 5895 5895 5895 5895 5895 5895 5894 5894 5894 5893 5892 5892 5891 5890 5890 5889 5888 5887 5886 5885 5883 5882 5880 5879
5864 5867 5869 5872 5874 5877 5879 5881 5882 5884 5886 5887 5889 5890 5891 5892 5892 5893 5893 5893 5894 5894 5894 5894 5894 5894 5893 5893 5892 5892 5891 5891 5890 5889 5888 5887 5886 5885 5884 5883 5881 5880 5878
5860 5864 5867 5869 5872 5874 5876 5878 5880 5882 5884 5886 5887 5888 5889 5890 5891 5891 5892 5892 5892 5893 5893 5893 5893 5893 5892 5892 5891 5891 5890 5890 5889 5888 5888 5887 5886 5884 5883 5882 5880 5878 5877
5857 5860 5863 5866 5869 5872 5874 5876 5878 5880 5882 5884 5885 5886 5888 5888 5889 5890 5890 5891 5891 5891 5891 5891 5891 5892 5891 5891 5891 5890 5889 5889 5888 5887 5887 5886 5885 5883 5882 5880 5879 5877 5875
5853 5857 5860 5863 5866 5869 5872 5874 5876 5878 5880 5882 5883 5885 5886 5887 5887 5888 5889 5889 5890 5890 5890 5890 5890 5890 5890 5890 5889 5889 5888 5888 5887 5886 5885 5884 5883 5882 5881 5879 5877 5876 5874
5849 5853 5856 5859 5863 5866 5869 5871 5873 5875 5877 5879 5881 5882 5884 5885 5886 5886 5887 5888 5888 5888 5888 5889 5889 5889 5889 5888 5888 5887 5887 5886 5885 5885 5884 5883 5882 5880 5879 5877 5876 5874 5872
5844 5849 5852 5856 5859 5862 5865 5868 5871 5873 5875 5877 5879 5880 5881 5882 5884 5884 5885 5886 5886 5887 5887 5887 5887 5887 5887 5887 5886 5886 5885 5885 5884 5883 5882 5881 5880 5879 5877 5875 5874 5872 5870
5840 5844 5848 5852 5856 5859 5862 5865 5867 5870 5872 5874 5876 5877 5879 5880 5881 5882 5883 5884 5884 5885 5885 5885 5885 5885 5885 5885 5884 5884 5883 5883 5882 5881 5880 5879 5878 5876 5875 5873 5871 5869 5867
5835 5840 5844 5848 5852 5856 5859 5862 5864 5867 5869 5871 5873 5875 5876 5877 5879 5880 5880 5881 5882 5882 5883 5883 5883 5883 5883 5883 5882 5882 5881 5881 5880 5879 5878 5877 5875 5874 5872 5871 5869 5867 5864
5831 5836 5840 5844 5848 5852 5855 5858 5861 5863 5866 5868 5870 5872 5873 5875 5876 5877 5878 5879 5879 5880 5880 5880 5881 5880 5880 5880 5880 5879 5879 5878 5877 5876 5875 5874 5872 5871 5869 5867 5865 5863 5861
5827 5831 5836 5840 5844 5848 5851 5854 5857 5860 5862 5865 5866 5868 5870 5871 5873 5874 5875 5876 5876 5877 5877 5877 5878 5878 5878 5877 5877 5876 5876 5875 5874 5873 5872 5871 5869 5868 5866 5864 5862 5860 5857
5822 5827 5831 5835 5840 5844 5847 5850 5853 5856 5859 5861 5863 5865 5866 5868 5869 5870 5872 5872 5873 5873 5874 5874 5874 5874 5874 5874 5873 5873 5872 5871 5871 5869 5868 5867 5865 5864 5862 5860 5858 5856 5853
5816 5822 5826 5830 5835 5839 5842 5846 5849 5852 5854 5857 5859 5861 5862 5864 5865 5867 5868 5868 5869 5870 5870 5870 5870 5870 5870 5870 5869 5869 5868 5867 5866 5865 5864 5862 5861 5859 5857 5855 5853 5851 5848
5810 5816 5821 5825 5829 5833 5837 5841 5844 5846 5849 5852 5854 5856 5858 5860 5861 5862 5863 5864 5865 5865 5866 5866 5866 5866 5866 5866 5865 5865 5864 5863 5862 5861 5859 5858 5856 5854 5852 5850 5848 5846 5843
5804 5810 5815 5820 5824 5828 5831 5835 5838 5841 5844 5847 5849 5851 5853 5855 5856 5857 5858 5859 5860 5861 5861 5861 5861 5861 5861 5861 5860 5860 5859 5858 5857 5856 5854 5852 5851 5849 5846 5844 5842 5840 5837
5797 5803 5808 5812 5817 5822 5825 5829 5832 5835 5838 5841 5843 5845 5847 5849 5851 5852 5853 5854 5855 5855 5856 5856 5856 5856 5856 5855 5855 5854 5854 5853 5851 5850 5848 5847 5845 5843 5840 5838 5836 5833 5831
5790 5796 5801 5805 5810 5815 5819 5822 5825 5828 5831 5834 5837 5839 5841 5843 5845 5846 5847 5848 5849 5850 5850 5850 5850 5850 5850 5850 5849 5849 5848 5846 5845 5844 5842 5840 5838 5836 5834 5832 5829 5826 5824
5784 5789 5794 5799 5803 5807 5811 5814 5818 5821 5825 5827 5830 5832 5834 5836 5838 5840 5841 5842 5842 5843 5844 5844 5844 5844 5844 5843 5843 5842 5841 5840 5838 5836 5835 5833 5831 5829 5827 5824 5822 5819 5816
5777 5782 5787 5792 5796 5801 5804 5808 5811 5814 5817 5820 5822 5825 5827 5829 5831 5832 5834 5834 5835 5836 5836 5837 5837 5837 5836 5836 5835 5835 5834 5832 5831 5829 5827 5825 5823 5821 5819 5816 5813 5811 5808
5770 5775 5780 5785 5789 5793 5797 5801 5804 5806 5809 5812 5815 5817 5819 5821 5823 5824 5826 5827 5828 5828 5829 5829 5829 5829 5828 5828 5827 5826 5826 5825 5822 5821 5819 5816 5814 5812 5810 5807 5805 5802 5799
5763 5768 5772 5777 5781 5785 5789 5792 5796 5798 5801 5804 5807 5809 5811 5813 5815 5816 5817 5818 5819 5820 5820 5820 5820 5820 5820 5819 5818 5817 5816 5816 5814 5813 5810 5807 5805 5803 5800 5798 5795 5793 5790
5756 5760 5765 5769 5773 5777 5780 5784 5788 5791 5794 5797 5799 5800 5803 5804 5806 5807 5808 5809 5810 5811 5811 5811 5811 5811 5811 5810 5809 5807 5806 5805 5804 5803 5802 5798 5796 5793 5791 5788 5785 5782 5780
5748 5752 5756 5760 5764 5768 5772 5776 5779 5783 5786 5788 5790 5792 5794 5795 5797 5798 5799 5800 5801 5802 5802 5802 5802 5802 5801 5801 5799 5798 5796 5794 5792 5791 5791 5789 5786 5783 5780 5778 5775 5772 5769
5739 5744 5747 5751 5755 5759 5763 5766 5769 5773 5776 5778 5780 5782 5784 5786 5787 5789 5790 5791 5792 5792 5792 5792 5792 5792 5791 5790 5789 5788 5786 5784 5782 5780 5779 5778 5775 5773 5770 5767 5764 5761 5758